Regional Weather Roundup
Issued by NWS Bismarck, ND

Home | Current Version | Previous Version | Text Only | Print | Product List | Glossary On
Versions: 1 2 3 4 5 6 7 8 9 10 11 12 13 14 15 16 17 18 19 20 21 22 23 24 25 26 27 28 29 30 31 32 33 34 35 36 37 38 39 40 41 42 43 44 45 46 47 48 49 50
000
ASUS43 KBIS 230002
RWRBIS

NWR BROADCAST TEXT
NATIONAL WEATHER SERVICE BISMARCK ND
600 PM CST WED FEB 22 2017

NOTE: "FAIR" INDICATES FEW OR NO CLOUDS BELOW 12,000 FEET WITH NO
SIGNIFICANT WEATHER AND/OR OBSTRUCTIONS TO VISIBILITY.


CITY           SKY/WX    TMP DP  RH WIND       PRES   REMARKS
WILLISTON      CLOUDY    32  26  78 N7        29.97R
MINOT          FAIR      33  25  72 NW9       29.94R
MINOT AFB      FAIR      31  26  79 NW9       29.93R
BISMARCK       CLOUDY    34  30  85 NE8       29.92R
DICKINSON      CLOUDY    29  25  85 N9        29.90R
GARRISON         N/A     31  27  85 NW8       29.92R
HETTINGER ARPT CLOUDY    31  27  85 N13       29.91R
JAMESTOWN      CLOUDY    31  26  82 N18       29.87R WCI  19
CARRINGTON     CLOUDY    32  27  80 N13       29.92R
HAZEN          CLOUDY   N/A N/A N/A N10       29.95R
MANDAN         MOCLDY    32  32 100 NE7       29.92R
STANLEY        FAIR      30  28  93 N7        29.96R
WATFORD CITY   MOCLDY    30  27  86 N6        29.96R
$$

CITY           SKY/WX    TMP DP  RH WIND       PRES   REMARKS
GRAND FORKS    MOCLDY    34  25  69 N10       29.87R
GRAND FORKS AF CLEAR     33  27  79 N10       29.88R
DEVILS LAKE    FAIR      31  26  82 NW10      29.91R
FARGO          CLOUDY    34  30  85 N15       29.83R
CAVALIER         N/A     32  27  80 N12       29.90R
GRAFTON        FAIR      32  28  86 NW10      29.90R
GWINNER        MOCLDY    32  32 100 N16       29.84R
ROLLA          CLOUDY    28  25  86 NW9       29.91R WCI  20
$$

CITY           SKY/WX    TMP DP  RH WIND       PRES   REMARKS
ABERDEEN       CLOUDY    33  28  81 N18       29.86R
MOBRIDGE       CLOUDY    35  30  82 N12       29.85R
BUFFALO          N/A     33  30  88 NE10      29.83R
RAPID CITY     FAIR      39  29  67 N29G39    29.82R
GLASGOW        MOCLDY    32  28  85 W3        29.97R
SIDNEY         MOCLDY    31  27  85 N9        29.98R
WOLF POINT     CLOUDY    33  26  75 CALM      29.99R
GLENDIVE       CLOUDY    29  26  89 N12       29.96R WCI  19
MILES CITY     CLOUDY    34  31  88 NE12      29.93R
BAKER          CLOUDY    30  27  88 NW9       29.92R
$$

CITY           SKY/WX    TMP DP  RH WIND       PRES   REMARKS
BILLINGS       MOCLDY    33  32  96 NE3       29.89R
GREAT FALLS    CLOUDY    35  25  66 N10       29.91R
$$




USA.gov is the U.S. government's official web portal to all federal, state and local government web resources and services.